Regional Weather Roundup
Issued by NWS

Home | Current Version | Previous Version | Graphics & Text | Print | Product List | Glossary On
Versions: 1 2 3 4 5 6 7 8 9 10 11 12 13 14 15 16 17 18 19 20 21 22 23 24 25 26 27 28 29 30 31 32 33 34 35 36 37 38 39 40 41 42 43 44 45 46 47 48 49 50
395
ASUS45 KABQ 060610
RWRNM
NEW MEXICO REGIONAL WEATHER ROUNDUP
NATIONAL WEATHER SERVICE ALBUQUERQUE NM
1100 PM MST MON DEC 05 2016

NOTE: "FAIR" MEANS FEW OR NO CLOUDS BELOW 12,000 FEET AGL WITH NO
       SIGNIFICANT WEATHER OR OBSTRUCTIONS TO VISION.

      THIS PRODUCT IS RELEASED AS TWO VERSIONS.  ONE VERSION NEAR
      THE TOP OF THE HOUR CONTAINING PRELIMINARY DATA FROM ALBUQUERQUE
      AND OTHER STATIONS.  A FINAL VERSION WITH ADDITIONAL DATA IS
      ISSUED ABOUT 10 MINUTES AFTER THE HOUR.

NMZ501-503-504-510>518-060700-
NORTHWEST PLATEAU/NORTHCENTRAL MOUNTAINS

CITY           SKY/WX    TMP DP  RH WIND       PRES   REMARKS
FARMINGTON     FAIR      28  21  75 NE7       29.88R WCI  21
6HR MIN TEMP:  28; 6HR MAX TEMP:  42;

LOS ALAMOS     FAIR      35  13  40 SE3       29.91S
SANTA FE       FAIR      34  15  46 N12       29.88S WCI  25
6HR MIN TEMP:  33; 6HR MAX TEMP:  46;

TAOS           FAIR      25  10  54 E10       29.90R WCI  15
ANGEL FIRE     FAIR      18  10  70 CALM      29.91R

$$
NMZ402-403-502-505>509-060700-
WESTCENTRAL MOUNTAINS/SOUTHWEST MOUNTAINS

CITY           SKY/WX    TMP DP  RH WIND       PRES   REMARKS
GALLUP         FAIR      36  15  42 SW8       29.94R WCI  30
6HR MIN TEMP:  32; 6HR MAX TEMP:  44;

GRANTS         FAIR      33  20  59 SE9       29.95S WCI  25
SILVER CITY    FAIR      34  21  59 NW6       29.99R WCI  29

$$
NMZ407-409-411-412-060700-
SOUTHERN DESERTS

CITY           SKY/WX    TMP DP  RH WIND       PRES   REMARKS
DEMING         FAIR      42  26  53 W7        29.98R
6HR MIN TEMP:  39; 6HR MAX TEMP:  56;

LAS CRUCES     FAIR      46  20  35 W20G25    29.94S
HOLLOMAN AFB   FAIR      40  23  51 SE5       29.93R
T OR C         FAIR      45  17  32 NW14      29.91S
6HR MIN TEMP:  44; 6HR MAX TEMP:  57;


$$
NMZ519>523-060700-
CENTRAL VALLEYS/CENTRAL HIGHLANDS

CITY           SKY/WX    TMP DP  RH WIND       PRES   REMARKS
ALBUQUERQUE    FAIR      34  16  47 SE3       29.91R
6HR MIN TEMP:  33; 6HR MAX TEMP:  52;

DOUBLE EAGLE   FAIR      30  15  53 W7        29.91S WCI  23
MORIARTY ARPT  FAIR      31   6  35 NW7       29.91R WCI  24
6HR MIN TEMP:  31; 6HR MAX TEMP:  47;

CLINES CORNERS FAIR      30   8  39 NW15      29.89R WCI  19
6HR MIN TEMP:  30; 6HR MAX TEMP:  43;

BELEN          FAIR      35  17  47 CALM      29.91S
6HR MIN TEMP:  34; 6HR MAX TEMP:  52;

SOCORRO        FAIR      46  11  25 W6        29.90S
6HR MIN TEMP:  40; 6HR MAX TEMP:  55;


$$
NMZ524>526-539-540-060700-
SOUTHCENTRAL MOUNTAINS

CITY           SKY/WX    TMP DP  RH WIND       PRES   REMARKS
RUIDOSO        FAIR      39  16  38 N6        29.94R WCI  35

$$
NMZ527>531-060700-
NORTHEAST HIGHLANDS/NORTHEAST PLAINS

CITY           SKY/WX    TMP DP  RH WIND       PRES   REMARKS
LAS VEGAS      FAIR      37   1  22 NW6       29.85R WCI  32
6HR MIN TEMP:  30; 6HR MAX TEMP:  47;

RATON          FAIR      25  12  58 NE14      29.84R WCI  13
6HR MIN TEMP:  25; 6HR MAX TEMP:  50;

CLAYTON        FAIR      28  12  51 N22       29.88  WCI  14
6HR MIN TEMP:  28; 6HR MAX TEMP:  53;


$$
NMZ532>537-060700-
EASTCENTRAL PLAINS

CITY           SKY/WX    TMP DP  RH WIND       PRES   REMARKS
TUCUMCARI      FAIR      43  24  47 NE14      29.85R
6HR MIN TEMP:  42; 6HR MAX TEMP:  56;

CANNON AFB     FAIR      41  22  46 N12       29.81R
6HR MIN TEMP:  41; 6HR MAX TEMP:  58;

CLOVIS AIRPORT FAIR      43  19  39 NW18      29.81R

$$
NMZ028-029-538-060700-
SOUTHEAST PLAINS

CITY           SKY/WX    TMP DP  RH WIND       PRES   REMARKS
ROSWELL        FAIR      47  24  40 NW13      29.82R
6HR MIN TEMP:  41; 6HR MAX TEMP:  57;

ARTESIA        FAIR      48  28  46 W15       29.82S
CARLSBAD       FAIR      54  27  35 W25       29.79S
6HR MIN TEMP:  54; 6HR MAX TEMP:  58;

HOBBS          FAIR      50  28  43 W18       29.80R


$$




USA.gov is the U.S. government's official web portal to all federal, state and local government web resources and services.